Regional Weather Roundup
Issued by NWS

Home | Current Version | Previous Version | Text Only | Print | Product List | Glossary On
Versions: 1 2 3 4 5 6 7 8 9 10 11 12 13 14 15 16 17 18 19 20 21 22 23 24 25 26 27 28 29 30 31 32 33 34 35 36 37 38 39 40 41 42 43 44 45 46 47 48 49 50
000
ASUS43 KLSX 201059
RWRMO

WEATHER SUMMARY FOR MISSOURI
NATIONAL WEATHER SERVICE SPRINGFIELD MO
600 AM CDT SAT SEP 20 2014

NOTE: "FAIR" INDICATES FEW OR NO CLOUDS BELOW 12,000 FEET WITH NO
       SIGNIFICANT WEATHER AND/OR OBSTRUCTIONS TO VISIBILITY.
       CURRENT SKY AND/OR WEATHER CONDITIONS ARE NOT AVAILABLE FOR
       CHILLICOTHE AND FARMINGTON.

MOZ001>031-035>038-043-044-053-054-201200-
...NORTHERN AND WESTERN MISSOURI...

CITY           SKY/WX    TMP DP  RH WIND       PRES   REMARKS
KANSAS CTY INT CLEAR     67  66  97 SW12      29.93R FOG
KANSAS C DTWN  CLEAR     71  67  87 SW12      29.93S
LEE`S SUMMIT   CLEAR     68  66  93 SW9       29.95S FOG
ST JOSEPH      PTCLDY    67  66  97 CALM      29.93R FOG
KIRKSVILLE     CLEAR     65  63  93 SW7       29.95R FOG

$$
MOZ066>068-077>081-088>096-101>105-201200-
...SOUTHWEST MISSOURI...

CITY           SKY/WX    TMP DP  RH WIND       PRES   REMARKS
SPRINGFIELD    CLEAR     65  63  93 S7        30.02R
JOPLIN         CLEAR     67  66  97 S5        30.01R FOG

$$
MOZ032>034-039>042-045>050-055>058-069>072-201200-
...CENTRAL MISSOURI...

CITY           SKY/WX    TMP DP  RH WIND       PRES   REMARKS
COLUMBIA       CLEAR     63  62  97 S7        29.98S FOG
JEFFERSON CITY CLEAR     63  61  93 SE3       29.98R
ROLLA          CLEAR     64  61  90 SW9       30.00S FOG
SEDALIA        CLEAR     67  64  90 SW10      29.97R FOG
OSAGE BEACH    CLEAR     63  59  88 CALM      30.00S

$$
MOZ051-052-059>065-201200-
...EAST CENTRAL MISSOURI...

CITY           SKY/WX    TMP DP  RH WIND       PRES   REMARKS
ST LOUIS INTL  PTCLDY    66  60  81 CALM      30.00R
SPIRIT OF STL  PTCLDY    57  56  96 CALM      29.99R
ST CHARLES     CLEAR     57  56  96 CALM      29.99R FOG

$$
MOZ072>076-082>087-097>100-106>115-201200-
...SOUTH CENTRAL AND SOUTHEAST MISSOURI...

CITY           SKY/WX    TMP DP  RH WIND       PRES   REMARKS
CAPE GIRARDEAU FOG       56  55  97 CALM      30.05R VSB 1
FARMINGTON     CLEAR     57  55  94 CALM      30.05R
POPLAR BLUFF   CLEAR     59  56  89 N3        30.04R
WEST PLAINS    CLEAR     60  58  92 CALM      30.06R FOG

$$


USA.gov is the U.S. government's official web portal to all federal, state and local government web resources and services.